Southport Airport
CYPG : now visible

Airfield :











YOU CAN JOIN US ON...

 
LOGIN :

Register | Disclaimer

   EN    FR    IT 

 









Legend :    VFR   Marginal VFR   IFR   Intensive IFR   Very Intensive IFR
Visi :
Ceiling :
>= 8 km
>= 3000ft
5 to 8 km
1000 to 3000 ft
1500m to 5 km
500 to 1000 ft
800 to 1500m
200 to 500 ft
< 800m
< 200 ft
Symbols :   Thunderstorms  Fog  Heavy snow  Heavy precipitations  Wind > 20 kt






- Airport Elevation : 885 ft
- IATA code : YPG


CYPG - Southport

CURRENT METAR :
  • 291500Z 12004KT 15SM BKN025 M04/M06 A3016 RMK SC7 SLP230

EXPIRED METARs :
  • 291400Z 13007KT 15SM BKN024 BKN050 M05/M06 A3016 RMK SC5SC2 SLP230

TAF TAF CYPG
Valid from the 29 at 12:00 until the 30 at 00:00 UTC


291215Z 2912/2924 13010KT P6SM OVC030
TEMPO 2912/2922 5SM -SHSN OVC020
PROB30 2916/2920 5SM -FZDZ BR RMK NXT FCST BY 291800Z
CZWG FIR / North America



MET'MAP, your aeronautical weather chart ! - Copyright ORBIFLY December 2007 - Disclaimer

ORBIFLY MET'MAP TEAM :

Programming & Development : Alexandra Zaïnal
Concept & original design : Baudouin d'Aumeries
Assistance for programming : Marc-Olivier Méhu
Technical & hardware support : Manuel Goepfert

Contact : metmap@orbifly.com




SOURCES & CREDITS :

   NOAA       Earth
Advisory